This is the latest recevied weather packets stored in our database for station/object DL9LAF-4. If no packets are shown the sender has not sent any weather packets the latest 10 day(s).
| Time | Temp. | Humidity | Pressure | Rain* | Wind** | Luminosity | Snow |
|---|---|---|---|---|---|---|---|
| 1777271751 | 6.11° C | 83% | 1004.5 hPa | 0 mm | - | - | - |
| 1777271151 | 5.56° C | 84% | 1004.5 hPa | 0 mm | - | - | - |
| 1777270551 | 5.56° C | 86% | 1004.4 hPa | 0 mm | - | - | - |
| 1777269951 | 5° C | 87% | 1004.4 hPa | 0 mm | - | - | - |
| 1777269351 | 4.44° C | 88% | 1004.4 hPa | 0 mm | - | - | - |
| 1777268751 | 3.89° C | 88% | 1004.2 hPa | 0 mm | - | - | - |
| 1777268151 | 3.33° C | 87% | 1004.2 hPa | 0 mm | - | - | - |
| 1777267551 | 3.33° C | 87% | 1004.2 hPa | 0 mm | - | - | - |
| 1777266951 | 3.33° C | 87% | 1004.4 hPa | 0 mm | - | - | - |
| 1777266351 | 2.78° C | 88% | 1004.2 hPa | 0 mm | - | - | - |
| 1777265751 | 2.78° C | 87% | 1004.2 hPa | 0 mm | - | - | - |
| 1777265151 | 2.22° C | 87% | 1004 hPa | 0 mm | - | - | - |
| 1777264551 | 1.67° C | 87% | 1004 hPa | 0 mm | - | - | - |
| 1777263951 | 1.67° C | 87% | 1004 hPa | 0 mm | - | - | - |
| 1777263351 | 1.67° C | 86% | 1004 hPa | 0 mm | - | - | - |
| 1777262751 | 1.11° C | 86% | 1003.7 hPa | 0 mm | - | - | - |
| 1777262151 | 1.11° C | 86% | 1003.7 hPa | 0 mm | - | - | - |
| 1777261551 | 1.11° C | 85% | 1003.5 hPa | 0 mm | - | - | - |
| 1777260951 | 1.67° C | 86% | 1003.5 hPa | 0 mm | - | - | - |
| 1777260351 | 1.67° C | 86% | 1003.4 hPa | 0 mm | - | - | - |
| 1777259751 | 1.67° C | 86% | 1003.5 hPa | 0 mm | - | - | - |
| 1777259151 | 1.67° C | 86% | 1003.7 hPa | 0 mm | - | - | - |
| 1777258551 | 1.67° C | 86% | 1003.5 hPa | 0 mm | - | - | - |
| 1777257951 | 1.67° C | 86% | 1003.5 hPa | 0 mm | - | - | - |
| 1777257351 | 1.67° C | 86% | 1003.7 hPa | 0 mm | - | - | - |
* Rain latest hour (hover to see other rain measurements)
** Current wind speed in m/s (hover to see current wind gust speed)